CW2220 Weather Reports


Display with metric or nautical units.
time (UTC)temp
F
wind
direction
speed
MPH
gust
MPH
rain 1hr
in
rain 24hr
in
rain mn
in
humidity
%
barometer
mb
20260506031551 75 194 4.0 12.0 0.00 0.00 0.00 94 1010.8
20260506030040 75 186 4.0 14.0 0.00 0.00 0.00 94 1010.6
20260506024538 74 194 4.0 7.0 0.00 0.00 0.00 94 1010.4
20260506023037 74 180 4.0 11.0 0.00 0.00 0.00 93 1010.2
20260506021540 75 178 4.0 11.0 0.00 0.00 0.00 92 1010.1
20260506020037 75 184 4.0 9.0 0.00 0.00 0.00 92 1010.0
20260506014536 75 201 3.0 7.0 0.00 0.00 0.00 91 1009.9
20260506013041 75 217 3.0 9.0 0.00 0.00 0.00 90 1009.8
20260506011540 76 192 3.0 10.0 0.00 0.00 0.00 89 1009.4
20260506010034 76 155 2.0 7.0 0.00 0.00 0.00 88 1009.5
20260506004604 77 217 2.0 8.0 0.00 0.00 0.00 87 1009.6
20260506003035 77 157 4.0 10.0 0.00 0.00 0.00 87 1009.3
20260506001536 78 203 5.0 13.0 0.00 0.00 0.00 86 1009.3
20260506000035 78 205 4.0 12.0 0.00 0.00 0.00 85 1009.4
20260505234604 78 138 4.0 14.0 0.00 0.00 0.00 85 1009.4
20260505233035 78 163 8.0 16.0 0.00 0.00 0.00 85 1009.4
20260505231538 78 182 7.0 17.0 0.00 0.00 0.00 85 1009.5
20260505230036 79 183 8.0 18.0 0.00 0.00 0.00 84 1009.6
20260505224535 79 158 4.0 18.0 0.00 0.00 0.00 85 1009.7
20260505223052 79 178 5.0 12.0 0.00 0.00 0.00 85 1009.8
20260505221539 79 158 6.0 17.0 0.00 0.00 0.00 85 1009.9
20260505220034 79 159 7.0 14.0 0.00 0.00 0.00 84 1010.0
20260505214539 80 197 5.0 17.0 0.00 0.00 0.00 83 1010.0
20260505213032 80 107 6.0 15.0 0.00 0.00 0.00 82 1010.1
20260505211538 80 179 8.0 18.0 0.00 0.00 0.00 81 1010.3
20260505210035 80 168 7.0 17.0 0.00 0.00 0.00 80 1010.3
20260505204535 80 194 9.0 19.0 0.00 0.00 0.00 81 1010.2
20260505203036 81 153 8.0 15.0 0.00 0.00 0.00 80 1010.3
20260505201538 82 220 7.0 15.0 0.00 0.00 0.00 79 1010.6
20260505200037 81 238 9.0 19.0 0.00 0.00 0.00 79 1010.6
20260505194537 81 222 9.0 20.0 0.00 0.00 0.00 79 1010.7
20260505193035 81 209 9.0 21.0 0.00 0.00 0.00 79 1010.9
20260505191541 81 272 7.0 19.0 0.00 0.00 0.00 79 1010.9
20260505190046 81 229 6.0 22.0 0.00 0.00 0.00 79 1010.9
20260505184538 81 178 5.0 16.0 0.00 0.00 0.00 80 1011.0
20260505183044 81 205 5.0 17.0 0.00 0.00 0.00 79 1011.1
20260505181537 81 198 10.0 21.0 0.00 0.00 0.00 79 1011.0
20260505180034 81 163 8.0 23.0 0.00 0.00 0.00 79 1011.0
20260505174545 81 213 8.0 14.0 0.00 0.00 0.00 80 1011.2
20260505173043 81 200 6.0 17.0 0.00 0.00 0.00 79 1011.2
20260505171536 81 86 7.0 17.0 0.00 0.00 0.00 79 1011.3
20260505170037 79 196 8.0 17.0 0.00 0.00 0.00 81 1011.3
20260505164538 79 178 7.0 18.0 0.00 0.00 0.00 81 1011.5
20260505163036 79 175 7.0 18.0 0.00 0.00 0.00 80 1011.5
20260505161535 79 186 8.0 25.0 0.00 0.00 0.00 80 1011.5
20260505153040 77 252 6.0 16.0 0.00 0.00 0.00 82 1011.8
20260505151536 77 148 8.0 18.0 0.00 0.00 0.00 82 1011.7
20260505124538 70 167 3.0 6.0 0.00 0.00 0.00 91 1011.3
20260505123034 69 196 3.0 6.0 0.00 0.00 0.00 92 1011.2
20260505121542 68 188 1.0 5.0 0.00 0.00 0.00 92 1011.1
20260505120047 68 0 1.0 7.0 0.00 0.00 0.00 92 1010.9
20260505114536 67 185 1.0 5.0 0.00 0.00 0.00 92 1010.9
20260505113035 67 153 2.0 5.0 0.00 0.00 0.00 92 1010.9
20260505111539 67 169 1.0 5.0 0.00 0.00 0.00 92 1011.0
20260505101543 67 180 2.0 4.0 0.00 0.00 0.00 92 1011.0
20260505100041 67 160 2.0 4.0 0.00 0.00 0.00 92 1011.0
20260505094534 67 169 0.0 5.0 0.00 0.00 0.00 91 1011.3
20260505093035 67 0 1.0 3.0 0.00 0.00 0.00 91 1011.3
20260505091539 67 209 0.0 4.0 0.00 0.00 0.00 91 1011.2
20260505090036 67 155 1.0 4.0 0.00 0.00 0.00 90 1011.1
20260505084543 67 196 1.0 5.0 0.00 0.00 0.00 90 1011.0
20260505083036 67 0 1.0 4.0 0.00 0.00 0.00 90 1011.1
20260505081538 67 118 1.0 5.0 0.00 0.00 0.00 90 1010.9
20260505080037 67 137 1.0 5.0 0.00 0.00 0.00 89 1011.0
20260505074537 67 141 2.0 7.0 0.00 0.00 0.00 89 1011.1
20260505073237 67 153 2.0 5.0 0.00 0.00 0.00 89 1011.2
20260505071537 67 191 1.0 6.0 0.00 0.00 0.00 88 1011.3
20260505070049 67 107 2.0 4.0 0.00 0.00 0.00 88 1011.4
20260505064537 67 174 1.0 6.0 0.00 0.00 0.00 87 1012.0
20260505063035 67 150 1.0 4.0 0.00 0.00 0.00 87 1012.0
20260505061543 67 156 1.0 6.0 0.00 0.00 0.00 86 1012.2
20260505060040 67 196 1.0 4.0 0.00 0.00 0.00 86 1012.1
20260505054537 67 203 1.0 3.0 0.00 0.00 0.00 86 1012.4
20260505053037 67 185 0.0 3.0 0.00 0.00 0.00 85 1012.3
20260505051535 67 0 1.0 4.0 0.00 0.00 0.00 85 1012.4
20260505041549 66 182 0.0 2.0 0.00 0.00 0.00 83 1013.1
20260505040045 67 0 0.0 2.0 0.00 0.00 0.00 82 1013.1
20260505034532 67 161 0.0 5.0 0.00 0.00 0.00 81 1013.0
20260505033032 67 189 2.0 6.0 0.00 0.00 0.00 80 1012.9